Weather Service Report


827 
ASUS45 KABQ 211410
RWRNM 
WEATHER ROUNDUP FOR NEW MEXICO
NATIONAL WEATHER SERVICE ALBUQUERQUE NM
800 AM MDT THU AUG 21 2014

NOTE: "FAIR" MEANS FEW OR NO CLOUDS BELOW 12,000 FEET AGL WITH NO
       SIGNIFICANT WEATHER OR OBSTRUCTIONS TO VISION.

      THIS PRODUCT IS RELEASED AS TWO VERSIONS.  ONE VERSION NEAR
      THE TOP OF THE HOUR CONTAINING PRELIMINARY DATA FROM ALBUQUERQUE
      AND OTHER STATIONS.  A FINAL VERSION WITH ADDITIONAL DATA IS 
      ISSUED ABOUT 10 MINUTES AFTER THE HOUR.
 
NMZ501-503-504-510>518-211500-
NORTHWEST PLATEAU/NORTHCENTRAL MOUNTAINS
  
CITY           SKY/WX    TMP DP  RH WIND       PRES   REMARKS
FARMINGTON     SUNNY     60  41  49 CALM      30.18R                  
LOS ALAMOS     SUNNY     62  37  38 CALM      30.27R                  
SANTA FE       SUNNY     66  40  38 NW6       30.21R                  
TAOS           SUNNY     54  37  54 NW5       30.28R                  
ANGEL FIRE     FAIR      46  40  80 CALM      30.36R                  

$$
NMZ402-403-502-505>509-211500-
WESTCENTRAL MOUNTAINS/SOUTHWEST MOUNTAINS
  
CITY           SKY/WX    TMP DP  RH WIND       PRES   REMARKS
GALLUP         CLOUDY    57  40  52 E6        30.25R                  
SILVER CITY    SUNNY     66  50  55 NW9       30.18R                  

$$
NMZ407-409-411-412-211500-
SOUTHERN DESERTS
  
CITY           SKY/WX    TMP DP  RH WIND       PRES   REMARKS
LORDSBURG      FAIR      64  54  68 CALM      30.12R                  
DEMING         SUNNY     65  54  67 SW5       30.11R                  
LAS CRUCES     SUNNY     69  52  54 W8        30.11S                  
HOLLOMAN AFB   MOSUNNY   73  51  45 S10       30.06R                  
ALAMOGORDO     MOSUNNY   72  50  46 S8        30.09R                  
T OR C         SUNNY     70  48  45 N5        30.12R                  

$$
NMZ519>523-211500-
CENTRAL VALLEYS/CENTRAL HIGHLANDS
  
CITY           SKY/WX    TMP DP  RH WIND       PRES   REMARKS
ALBUQUERQUE    MOSUNNY   70  46  42 CALM      30.17R                  
DOUBLE EAGLE   MOSUNNY   66  39  37 NE5       30.20R                  
MORIARTY ARPT  FAIR      59  46  62 CALM      30.22R                  
CLINES CORNERS SUNNY     64  41  42 W9        30.24R                  
BELEN          FAIR      66  47  49 CALM      30.16R                  
SOCORRO        FAIR      68  47  46 CALM      30.14R                  

$$
NMZ524>526-539-540-211500-
SOUTHCENTRAL MOUNTAINS
  
CITY           SKY/WX    TMP DP  RH WIND       PRES   REMARKS
RUIDOSO        SUNNY     64  46  52 N3        30.27R                  

$$
NMZ527>531-211500-
NORTHEAST HIGHLANDS/NORTHEAST PLAINS
  
CITY           SKY/WX    TMP DP  RH WIND       PRES   REMARKS
LAS VEGAS      SUNNY     64  42  44 NW6       30.22R                  
RATON          SUNNY     59  49  69 E6        30.17R                  
CLAYTON        SUNNY     75  51  43 N7        30.08R                  

$$
NMZ532>537-211500-
EASTCENTRAL PLAINS
  
CITY           SKY/WX    TMP DP  RH WIND       PRES   REMARKS
TUCUMCARI      MOSUNNY   75  60  59 SW12      30.01R                  
CANNON AFB     SUNNY     71  63  75 SW9       30.06S                  
CLOVIS AIRPORT   N/A     70  61  73 SW9       30.08S                  

$$
NMZ028-029-538-211500-
SOUTHEAST PLAINS
  
CITY           SKY/WX    TMP DP  RH WIND       PRES   REMARKS
ROSWELL        SUNNY     72  61  68 CALM      30.02R                  
ARTESIA        SUNNY     75  54  46 SW12      30.03R                  
CARLSBAD       MOSUNNY   72  57  59 CALM      30.00R                  
HOBBS          MOSUNNY   75  63  64 S16       30.05R                  


$$

Return to Home page


Western Regional Climate Center, wrcc@dri.edu